MWI042 FWCL-HTDA

Flight info

Callsign MWI042
Flight time N/A
Altitude 39000
Route VCL DCT UVBUS DCT BOTEN BOTEN1B
Aircraft B737/M-SDE2E3FGHIRWXY/LB1

Departure

Time 2026-05-09 16:49
Airport Chileka International Airport (FWCL)

Arrival

Time N/A
Airport Julius Nyerere International Airport (HTDA)
Time Latitude Longitude Altitude Speed Heading
2026-05-09 16:17 -15.68023 34.97222 2563 ft 0 kts 275°
2026-05-09 16:43 -15.68023 34.97221 2563 ft 0 kts 275°
2026-05-09 16:44 -15.68022 34.97216 2563 ft 2 kts 276°
2026-05-09 16:44 -15.68019 34.97205 2563 ft 2 kts 298°
2026-05-09 16:44 -15.67985 34.97181 2563 ft 11 kts 340°
2026-05-09 16:44 -15.67887 34.97154 2563 ft 16 kts 345°
2026-05-09 16:45 -15.67821 34.97139 2563 ft 10 kts 349°
2026-05-09 16:45 -15.67793 34.97143 2563 ft 6 kts 30°
2026-05-09 16:45 -15.67782 34.97179 2563 ft 11 kts 95°
2026-05-09 16:45 -15.67800 34.97326 2563 ft 17 kts 97°
2026-05-09 16:46 -15.67813 34.97445 2563 ft 16 kts 96°
2026-05-09 16:46 -15.67824 34.97558 2563 ft 15 kts 96°
2026-05-09 16:46 -15.67832 34.97630 2563 ft 14 kts 96°
2026-05-09 16:46 -15.67842 34.97729 2563 ft 14 kts 96°
2026-05-09 16:47 -15.67856 34.97852 2563 ft 13 kts 97°
2026-05-09 16:47 -15.67861 34.97909 2563 ft 11 kts 86°
2026-05-09 16:47 -15.67837 34.97978 2563 ft 10 kts 76°
2026-05-09 16:47 -15.67873 34.97998 2563 ft 5 kts 249°
2026-05-09 16:48 -15.67872 34.97976 2563 ft 0 kts 277°
2026-05-09 16:48 -15.67871 34.97965 2563 ft 10 kts 277°
2026-05-09 16:48 -15.67833 34.97636 2563 ft 82 kts 277°
2026-05-09 16:49 -15.67737 34.96817 2565 ft 144 kts 275°
2026-05-09 16:49 -15.67619 34.95688 2940 ft 167 kts 276°
2026-05-09 16:49 -15.67499 34.94434 3574 ft 178 kts 275°
2026-05-09 16:50 -15.66686 34.92174 4954 ft 182 kts 319°
2026-05-09 16:50 -15.65460 34.91668 5231 ft 204 kts 353°
2026-05-09 16:50 -15.64008 34.91911 5582 ft 221 kts 20°
2026-05-09 16:50 -15.62549 34.92601 6054 ft 240 kts 25°
2026-05-09 16:51 -15.61005 34.93400 6549 ft 261 kts 22°
2026-05-09 16:51 -15.59271 34.94266 6974 ft 284 kts 21°
2026-05-09 16:51 -15.57474 34.95120 7886 ft 285 kts 20°
2026-05-09 16:51 -15.55654 34.95943 8758 ft 289 kts 19°
2026-05-09 16:52 -15.53775 34.96762 9613 ft 292 kts 18°
2026-05-09 16:52 -15.51885 34.97564 10433 ft 297 kts 18°
2026-05-09 16:52 -15.49936 34.98376 11025 ft 311 kts 18°
2026-05-09 16:52 -15.47853 34.99233 11351 ft 332 kts 18°
2026-05-09 16:53 -15.45647 35.00130 11918 ft 344 kts 18°
2026-05-09 16:53 -15.43424 35.01027 12676 ft 349 kts 18°
2026-05-09 16:53 -15.41126 35.01949 13459 ft 354 kts 18°
2026-05-09 16:53 -15.38800 35.02878 14284 ft 358 kts 18°
2026-05-09 16:54 -15.36470 35.03805 15110 ft 363 kts 17°
2026-05-09 16:54 -15.34120 35.04742 15929 ft 367 kts 18°
2026-05-09 16:54 -15.31678 35.05714 16753 ft 372 kts 17°
2026-05-09 16:54 -15.29258 35.06676 17542 ft 376 kts 17°
2026-05-09 16:55 -15.26824 35.07642 18309 ft 381 kts 17°
2026-05-09 16:55 -15.24334 35.08629 19065 ft 385 kts 17°
2026-05-09 16:55 -15.21856 35.09611 19789 ft 389 kts 17°
2026-05-09 16:55 -15.19270 35.10634 20517 ft 394 kts 17°
2026-05-09 16:56 -15.16712 35.11646 21206 ft 398 kts 17°
2026-05-09 16:56 -15.14111 35.12675 21874 ft 402 kts 17°
2026-05-09 16:56 -15.11501 35.13707 22516 ft 406 kts 17°
2026-05-09 16:56 -15.08834 35.14760 23141 ft 410 kts 18°
2026-05-09 16:57 -15.06172 35.15812 23740 ft 413 kts 18°
2026-05-09 16:57 -15.03476 35.16876 24320 ft 417 kts 18°
2026-05-09 16:57 -15.00741 35.17956 24849 ft 422 kts 18°
2026-05-09 16:57 -14.97962 35.19053 25388 ft 425 kts 18°
2026-05-09 16:58 -14.95178 35.20152 25914 ft 429 kts 18°
2026-05-09 16:58 -14.92408 35.21244 26410 ft 432 kts 18°
2026-05-09 16:58 -14.89591 35.22355 26898 ft 435 kts 18°
2026-05-09 16:58 -14.86706 35.23492 27373 ft 439 kts 18°
2026-05-09 16:59 -14.83895 35.24600 27819 ft 442 kts 18°
2026-05-09 16:59 -14.81032 35.25729 28251 ft 445 kts 18°
2026-05-09 16:59 -14.78135 35.26870 28673 ft 447 kts 18°
2026-05-09 16:59 -14.75201 35.28025 29080 ft 450 kts 18°
2026-05-09 17:00 -14.72264 35.29181 29474 ft 453 kts 18°
2026-05-09 17:00 -14.69329 35.30337 29849 ft 456 kts 18°
2026-05-09 17:00 -14.66317 35.31522 30218 ft 458 kts 18°
2026-05-09 17:00 -14.63330 35.32697 30572 ft 461 kts 18°
2026-05-09 17:01 -14.60327 35.33877 30912 ft 463 kts 18°
2026-05-09 17:01 -14.57315 35.35062 31239 ft 465 kts 18°
2026-05-09 17:01 -14.54306 35.36244 31576 ft 467 kts 18°
2026-05-09 17:01 -14.51244 35.37449 32054 ft 465 kts 18°
2026-05-09 17:02 -14.48239 35.38632 32501 ft 463 kts 18°
2026-05-09 17:02 -14.45260 35.39803 32848 ft 464 kts 18°
2026-05-09 17:02 -14.42200 35.41004 33265 ft 462 kts 18°
2026-05-09 17:02 -14.39210 35.42177 33656 ft 461 kts 18°
2026-05-09 17:03 -14.36214 35.43352 34008 ft 461 kts 18°
2026-05-09 17:04 -14.15703 35.52453 36287 ft 460 kts 26°
2026-05-09 17:05 -14.12857 35.54078 36560 ft 460 kts 26°
2026-05-09 17:05 -14.10091 35.55656 36823 ft 460 kts 26°
2026-05-09 17:05 -14.07313 35.57239 37079 ft 460 kts 26°
2026-05-09 17:05 -14.04482 35.58851 37329 ft 460 kts 26°
2026-05-09 17:06 -14.01692 35.60438 37572 ft 460 kts 26°
2026-05-09 17:06 -13.98887 35.62033 37808 ft 460 kts 26°
2026-05-09 17:06 -13.96098 35.63619 38039 ft 460 kts 26°
2026-05-09 17:06 -13.93300 35.65209 38263 ft 460 kts 26°
2026-05-09 17:07 -13.90491 35.66808 38484 ft 460 kts 26°
2026-05-09 17:07 -13.88632 35.67869 38626 ft 460 kts 26°
2026-05-09 17:07 -13.84925 35.69980 38903 ft 460 kts 26°
2026-05-09 17:08 -13.79269 35.73197 38989 ft 462 kts 26°
2026-05-09 17:08 -13.70897 35.77952 38997 ft 460 kts 26°
2026-05-09 17:09 -13.65278 35.81140 38997 ft 460 kts 26°
2026-05-09 17:09 -13.59683 35.84313 38997 ft 460 kts 26°
2026-05-09 17:10 -13.54071 35.87494 38997 ft 460 kts 26°
2026-05-09 17:10 -13.48460 35.90672 38996 ft 460 kts 26°
2026-05-09 17:11 -13.42820 35.93865 38997 ft 460 kts 26°
2026-05-09 17:11 -13.37257 35.97013 38997 ft 460 kts 26°
2026-05-09 17:12 -13.31687 36.00163 38997 ft 460 kts 26°
2026-05-09 17:12 -13.26087 36.03328 38997 ft 460 kts 26°
2026-05-09 17:13 -13.20456 36.06509 38997 ft 460 kts 26°
2026-05-09 17:13 -13.14832 36.09684 38997 ft 460 kts 26°
2026-05-09 17:14 -13.09232 36.12844 38997 ft 460 kts 26°
2026-05-09 17:14 -13.03640 36.15998 38997 ft 460 kts 26°
2026-05-09 17:15 -12.98038 36.19156 38997 ft 460 kts 26°
2026-05-09 17:15 -12.92453 36.22303 38997 ft 460 kts 26°
2026-05-09 17:17 -12.69988 36.34944 38996 ft 460 kts 26°
2026-05-09 17:18 -12.64344 36.38116 38997 ft 460 kts 26°
2026-05-09 17:18 -12.58787 36.41238 38998 ft 460 kts 26°
2026-05-09 17:19 -12.53179 36.44386 38997 ft 460 kts 26°
2026-05-09 17:19 -12.47570 36.47533 38997 ft 460 kts 26°
2026-05-09 17:20 -12.41950 36.50686 38997 ft 460 kts 26°
2026-05-09 17:20 -12.36329 36.53837 38997 ft 460 kts 26°
2026-05-09 17:21 -12.30720 36.56980 38997 ft 459 kts 26°
2026-05-09 17:21 -12.25137 36.60106 38997 ft 459 kts 26°
2026-05-09 17:22 -12.19496 36.63264 38997 ft 459 kts 26°
2026-05-09 17:22 -12.13915 36.66386 38997 ft 459 kts 26°
2026-05-09 17:23 -12.08303 36.69525 38997 ft 460 kts 26°
2026-05-09 17:23 -12.02692 36.72661 38997 ft 459 kts 26°
2026-05-09 17:25 -11.85880 36.82049 38997 ft 459 kts 26°
2026-05-09 17:25 -11.80291 36.85167 38997 ft 459 kts 26°
2026-05-09 17:26 -11.75609 36.87778 38997 ft 459 kts 26°
2026-05-09 17:26 -11.69054 36.91432 38997 ft 459 kts 26°
2026-05-09 17:27 -11.63444 36.94557 38997 ft 459 kts 26°
2026-05-09 17:27 -11.57829 36.97684 38997 ft 459 kts 26°
2026-05-09 17:28 -11.53176 37.00274 38997 ft 459 kts 26°
2026-05-09 17:28 -11.47550 37.03404 38997 ft 459 kts 26°
2026-05-09 17:29 -11.41020 37.07035 38997 ft 459 kts 26°
2026-05-09 17:29 -11.36339 37.09637 38997 ft 459 kts 26°
2026-05-09 17:30 -11.30733 37.12752 38997 ft 459 kts 26°
2026-05-09 17:30 -11.25151 37.15852 38997 ft 459 kts 26°
2026-05-09 17:31 -11.19506 37.18986 38997 ft 459 kts 26°
2026-05-09 17:32 -11.05467 37.26773 38997 ft 459 kts 26°
2026-05-09 17:33 -10.99858 37.29882 38997 ft 459 kts 26°
2026-05-09 17:33 -10.94254 37.32987 38997 ft 459 kts 26°
2026-05-09 17:34 -10.88638 37.36097 38997 ft 459 kts 26°
2026-05-09 17:35 -10.68997 37.46963 38997 ft 459 kts 26°
2026-05-09 17:36 -10.63376 37.50070 38997 ft 459 kts 26°
2026-05-09 17:36 -10.57781 37.53161 38997 ft 459 kts 26°
2026-05-09 17:37 -10.52098 37.56299 38996 ft 459 kts 26°
2026-05-09 17:37 -10.46545 37.59365 38997 ft 459 kts 26°
2026-05-09 17:38 -10.40928 37.62464 38997 ft 459 kts 26°
2026-05-09 17:39 -10.32466 37.67131 38997 ft 459 kts 26°
2026-05-09 17:39 -10.26889 37.70206 38997 ft 459 kts 26°
2026-05-09 17:40 -10.21235 37.73321 38997 ft 459 kts 26°
2026-05-09 17:40 -10.15628 37.76409 38997 ft 459 kts 26°
2026-05-09 17:41 -10.10043 37.79484 38997 ft 459 kts 26°
2026-05-09 17:41 -10.04392 37.82593 38997 ft 459 kts 26°
2026-05-09 17:42 -9.98809 37.85665 38997 ft 459 kts 26°
2026-05-09 17:42 -9.93200 37.88749 38997 ft 459 kts 26°
2026-05-09 17:43 -9.87564 37.91847 38997 ft 459 kts 26°
2026-05-09 17:43 -9.81917 37.94950 38997 ft 459 kts 25°
2026-05-09 17:44 -9.76345 37.98011 38997 ft 459 kts 25°
2026-05-09 17:44 -9.70707 38.01107 38997 ft 459 kts 25°
2026-05-09 17:45 -9.65044 38.04214 38997 ft 459 kts 25°
2026-05-09 17:45 -9.59453 38.07282 38997 ft 459 kts 25°
2026-05-09 17:46 -9.53832 38.10364 38997 ft 459 kts 25°
2026-05-09 17:46 -9.48232 38.13434 38997 ft 459 kts 25°
2026-05-09 17:47 -9.42634 38.16502 38997 ft 459 kts 25°
2026-05-09 17:47 -9.36975 38.19602 38997 ft 459 kts 25°
2026-05-09 17:48 -9.31351 38.22682 38997 ft 459 kts 25°
2026-05-09 17:48 -9.25752 38.25747 38997 ft 459 kts 25°
2026-05-09 17:49 -9.20169 38.28802 38997 ft 459 kts 25°
2026-05-09 17:49 -9.14544 38.31879 38997 ft 459 kts 25°
2026-05-09 17:50 -9.08894 38.34968 38997 ft 459 kts 25°
2026-05-09 17:50 -9.00477 38.39568 38998 ft 459 kts 25°
2026-05-09 17:51 -8.94850 38.42643 38988 ft 459 kts 25°
2026-05-09 17:51 -8.91979 38.44211 38601 ft 463 kts 25°
2026-05-09 17:51 -8.89191 38.45733 38039 ft 462 kts 25°
2026-05-09 17:52 -8.86390 38.47263 37355 ft 462 kts 25°
2026-05-09 17:52 -8.83530 38.48824 36644 ft 463 kts 25°
2026-05-09 17:52 -8.80728 38.50353 35947 ft 463 kts 25°
2026-05-09 17:52 -8.77868 38.51914 35391 ft 459 kts 25°
2026-05-09 17:53 -8.75082 38.53437 34857 ft 456 kts 25°
2026-05-09 17:53 -8.72303 38.54954 34329 ft 452 kts 25°
2026-05-09 17:53 -8.69545 38.56459 33813 ft 448 kts 25°
2026-05-09 17:53 -8.66825 38.57942 33301 ft 445 kts 25°
2026-05-09 17:54 -8.64112 38.59421 32796 ft 442 kts 25°
2026-05-09 17:54 -8.61397 38.60901 32289 ft 438 kts 25°
2026-05-09 17:54 -8.58743 38.62347 31798 ft 435 kts 25°
2026-05-09 17:54 -8.56112 38.63780 31310 ft 432 kts 25°
2026-05-09 17:55 -8.53450 38.65230 30823 ft 429 kts 25°
2026-05-09 17:55 -8.50839 38.66648 30346 ft 425 kts 24°
2026-05-09 17:55 -8.48128 38.67837 29879 ft 419 kts 17°
2026-05-09 17:55 -8.45398 38.68759 29402 ft 414 kts 14°
2026-05-09 17:56 -8.42648 38.69568 28909 ft 411 kts 12°
2026-05-09 17:56 -8.39901 38.70305 28421 ft 407 kts 11°
2026-05-09 17:56 -8.37160 38.71020 27932 ft 404 kts 11°
2026-05-09 17:57 -8.31745 38.72430 26964 ft 398 kts 11°
2026-05-09 17:57 -8.29074 38.73126 26487 ft 395 kts 11°
2026-05-09 17:57 -8.26444 38.73810 26013 ft 392 kts 11°
2026-05-09 17:57 -8.23827 38.74491 25544 ft 390 kts 11°
2026-05-09 17:58 -8.21218 38.75170 25073 ft 387 kts 11°
2026-05-09 17:58 -8.18618 38.75846 24604 ft 384 kts 11°
2026-05-09 17:58 -8.16043 38.76516 24137 ft 381 kts 11°
2026-05-09 17:58 -8.13458 38.77189 23669 ft 379 kts 11°
2026-05-09 17:59 -8.10928 38.77848 23209 ft 376 kts 11°
2026-05-09 17:59 -8.08385 38.78510 22750 ft 373 kts 11°
2026-05-09 17:59 -8.05879 38.79163 22294 ft 371 kts 11°
2026-05-09 17:59 -8.03354 38.79820 21831 ft 368 kts 11°
2026-05-09 18:00 -8.00921 38.80452 21383 ft 366 kts 11°
2026-05-09 18:00 -7.98460 38.81092 20927 ft 364 kts 11°
2026-05-09 18:00 -7.96023 38.81726 20471 ft 361 kts 11°
2026-05-09 18:00 -7.93591 38.82358 20015 ft 359 kts 10°